Weather History for KPHF - July, 2013

Change the Weather History Date:

Monday, July 22, 2013

  Actual Average Record
Temperature  
Mean Temperature 82 °F -  
Max Temperature 91 °F 88 °F 104 °F (1952)
Min Temperature 73 °F 70 °F 50 °F (2000)
Cooling Degree Days 16    
Growing Degree Days 32 (Base 50)    
Moisture  
Dew Point 72 °F    
Average Humidity 76    
Maximum Humidity 88    
Minimum Humidity 59    
Precipitation  
Precipitation 1.63 in - - ()
Sea Level Pressure  
Sea Level Pressure 29.88 in    
Wind  
Wind Speed 3 mph (SSE)    
Max Wind Speed 20 mph    
Max Gust Speed 30 mph    
Visibility 6 miles    
Events Rain    
Averages and records for this station are not official NWS values.
T = Trace of Precipitation, MM = Missing Value Source: NWS Daily Summary

Daily Weather History Graph

Daily Weather History Graph

Search for Another Location

Airport or City:

Trip Planner

Search our weather history database for the weather conditions in past years. The results will help you decide how hot, cold, wet, or windy it might be!

Date:

Astronomy

Jul. 22, 2013 Rise Set
Actual Time 6:03 AM EDT 8:21 PM EDT
Civil Twilight 5:33 AM EDT 8:50 PM EDT
Nautical Twilight 4:57 AM EDT 9:27 PM EDT
Astronomical Twilight 4:17 AM EDT 10:06 PM EDT
Moon 8:08 PM EDT (7/22) 5:55 AM EDT (7/22)
Length of Visible Light 15h 17m
Length of Day
14h 18m
Full, 100% of the Moon is Illuminated
Jul 22
Full
Jul 22
Full
Jul 29
Last Quarter
Aug 6
New
Aug 14
First Quarter

Hourly Weather History & Observations

Time (EDT) Temp. Heat Index Dew Point Humidity Pressure Visibility Wind Dir Wind Speed Gust Speed Precip Events Conditions
12:54 AM 78.1 °F - 72.0 °F 81% 29.94 in 10.0 mi WSW 3.5 mph - N/A   Scattered Clouds
1:54 AM 75.9 °F - 71.1 °F 85% 29.93 in 9.0 mi Calm Calm - N/A   Mostly Cloudy
2:37 AM 75.2 °F - 69.8 °F 83% 29.93 in 2.5 mi Calm Calm - N/A   Haze
2:45 AM 75.2 °F - 69.8 °F 83% 29.93 in 3.0 mi Calm Calm - N/A   Haze
2:54 AM 75.0 °F - 70.0 °F 84% 29.93 in 6.0 mi Calm Calm - N/A   Haze
3:54 AM 75.0 °F - 70.0 °F 84% 29.92 in 9.0 mi Calm Calm - N/A   Clear
4:12 AM 75.2 °F - 69.8 °F 83% 29.92 in 7.0 mi Calm Calm - N/A   Scattered Clouds
4:21 AM 75.2 °F - 69.8 °F 83% 29.92 in 7.0 mi Calm Calm - N/A   Mostly Cloudy
4:30 AM 75.2 °F - 69.8 °F 83% 29.91 in 1.8 mi Calm Calm - N/A   Haze
4:44 AM 75.2 °F - 69.8 °F 83% 29.91 in 0.8 mi Calm Calm - N/A   Haze
4:54 AM 75.0 °F - 70.0 °F 84% 29.91 in 0.5 mi Calm Calm - N/A   Haze
5:06 AM 73.4 °F - 69.8 °F 88% 29.91 in 0.2 mi Calm Calm - N/A   Haze
5:25 AM 73.4 °F - 69.8 °F 88% 29.92 in 0.5 mi Calm Calm - N/A   Haze
5:54 AM 73.9 °F - 69.1 °F 85% 29.92 in 1.2 mi Calm Calm - N/A   Haze
6:08 AM 73.4 °F - 69.8 °F 88% 29.91 in 6.0 mi NNE 3.5 mph - N/A   Clear
6:54 AM 75.9 °F - 71.1 °F 85% 29.92 in 6.0 mi Calm Calm - N/A   Clear
7:54 AM 79.0 °F - 72.0 °F 79% 29.93 in 10.0 mi Calm Calm - N/A   Clear
8:54 AM 81.0 °F 85.8 °F 73.0 °F 77% 29.94 in 10.0 mi SSW 5.8 mph - N/A   Mostly Cloudy
9:54 AM 84.0 °F 90.2 °F 73.0 °F 69% 29.93 in 10.0 mi SSW 6.9 mph - N/A   Partly Cloudy
10:31 AM 84.2 °F 90.9 °F 73.4 °F 70% 29.93 in 10.0 mi South 5.8 mph - N/A   Mostly Cloudy
10:54 AM 84.9 °F 91.4 °F 73.0 °F 67% 29.93 in 10.0 mi South 6.9 mph - N/A   Mostly Cloudy
11:18 AM 86.0 °F 93.4 °F 73.4 °F 66% 29.92 in 10.0 mi Variable 5.8 mph - N/A   Scattered Clouds
11:42 AM 84.2 °F 90.9 °F 73.4 °F 70% 29.92 in 10.0 mi SSW 6.9 mph - N/A   Mostly Cloudy
11:54 AM 88.0 °F 97.5 °F 75.0 °F 65% 29.92 in 10.0 mi SSW 6.9 mph - N/A   Mostly Cloudy
12:02 PM 86.0 °F 93.4 °F 73.4 °F 66% 29.91 in 10.0 mi Variable 3.5 mph - N/A   Scattered Clouds
12:33 PM 87.8 °F 95.6 °F 73.4 °F 62% 29.91 in 10.0 mi SSW 5.8 mph - N/A   Mostly Cloudy
12:54 PM 88.0 °F 95.6 °F 73.0 °F 61% 29.91 in 10.0 mi Variable 3.5 mph - N/A   Mostly Cloudy
1:21 PM 87.8 °F 95.6 °F 73.4 °F 62% 29.89 in 10.0 mi WSW 4.6 mph - N/A   Mostly Cloudy
1:54 PM 88.0 °F 96.5 °F 73.9 °F 63% 29.88 in 10.0 mi Variable 4.6 mph - N/A   Mostly Cloudy
2:54 PM 89.1 °F 97.0 °F 73.0 °F 59% 29.86 in 10.0 mi Calm Calm - N/A   Scattered Clouds
3:54 PM 90.0 °F 99.0 °F 73.9 °F 59% 29.83 in 10.0 mi SSW 9.2 mph - N/A   Scattered Clouds
4:45 PM 86.0 °F 95.1 °F 75.2 °F 70% 29.82 in 8.0 mi East 5.8 mph - 0.00 in Rain Light Rain
4:54 PM 86.0 °F 96.0 °F 75.9 °F 72% 29.82 in 6.0 mi East 6.9 mph - 0.02 in Rain Rain
5:01 PM 86.0 °F 96.9 °F 77.0 °F 74% 29.82 in 4.0 mi East 9.2 mph - 0.00 in Rain Light Rain
5:17 PM 84.2 °F 92.3 °F 75.2 °F 74% 29.82 in 2.0 mi SW 4.6 mph - 0.07 in Rain Rain
5:24 PM 82.4 °F 88.2 °F 73.4 °F 74% 29.83 in 1.0 mi SSE 12.7 mph 18.4 mph 0.23 in Rain Heavy Rain
5:30 PM 80.6 °F 84.6 °F 71.6 °F 74% 29.83 in 0.5 mi South 19.6 mph - 0.58 in Rain Heavy Rain
5:37 PM 78.8 °F - 71.6 °F 78% 29.82 in 0.2 mi SE 19.6 mph 28.8 mph 1.06 in Rain Heavy Rain
5:45 PM 78.8 °F - 71.6 °F 78% 29.83 in 1.0 mi SE 17.3 mph 29.9 mph 1.13 in Rain Rain
5:51 PM 78.8 °F - 71.6 °F 78% 29.82 in 3.0 mi East 12.7 mph 25.3 mph 1.14 in Rain Light Rain
5:54 PM 78.1 °F - 71.1 °F 79% 29.83 in 4.0 mi ENE 11.5 mph - 1.15 in Rain Light Rain
6:01 PM 78.8 °F - 71.6 °F 78% 29.84 in 9.0 mi NE 5.8 mph - 0.00 in Rain Light Rain
6:09 PM 78.8 °F - 71.6 °F 78% 29.83 in 1.8 mi ENE 3.5 mph - 0.13 in Rain Heavy Rain
6:21 PM 78.8 °F - 71.6 °F 78% 29.84 in 2.0 mi NNE 4.6 mph - 0.22 in Rain Light Rain
6:50 PM 78.8 °F - 71.6 °F 78% 29.81 in 10.0 mi ENE 3.5 mph - 0.36 in Rain Light Rain
6:54 PM 79.0 °F - 73.0 °F 82% 29.81 in 10.0 mi ESE 3.5 mph - 0.36 in Rain Light Rain
7:54 PM 81.0 °F 85.8 °F 73.0 °F 77% 29.83 in 10.0 mi SSW 9.2 mph - 0.00 in   Partly Cloudy
8:54 PM 79.0 °F - 73.0 °F 82% 29.80 in 7.0 mi SSE 6.9 mph - 0.10 in Rain Light Rain
9:54 PM 79.0 °F - 73.0 °F 82% 29.82 in 10.0 mi Calm Calm - 0.00 in   Scattered Clouds
10:54 PM 79.0 °F - 72.0 °F 79% 29.81 in 10.0 mi SSW 3.5 mph - N/A   Clear
11:54 PM 79.0 °F - 72.0 °F 79% 29.82 in 10.0 mi Calm Calm - N/A   Clear